Location: Kalberh�ni
(46.4610°N, 7.2453°E)
Time: 08:41:31
(UTC+00:00)

Cosmos 1455 - Pass Details

Date: 30 October 2021
Orbit: 496 x 520 km, 82.5° (Epoch: 27 November)

Event Time Altitude Azimuth Distance (km) Brightness Sun altitude
Rises 17:37:04 0° 178° (S) 2,611 5.8 -13.9°
Reaches altitude 10° 17:39:13 10° 174° (S) 1,726 4.8 -14.3°
Maximum altitude 17:42:55 57° 96° (E) 604 2.1 -14.9°
Drops below altitude 10° 17:46:38 10° 17° (NNE) 1,727 4.6 -15.6°
Sets 17:48:47 0° 13° (NNE) 2,612 5.6 -15.9°
